Regional Weather Roundup
Issued by NWS

Home | Current Version | Previous Version | Graphics & Text | Print | Product List | Glossary On
Versions: 1 2 3 4 5 6 7 8 9 10 11 12 13 14 15 16 17 18 19 20 21 22 23 24 25 26 27 28 29 30 31 32 33 34 35 36 37 38 39 40 41 42 43 44 45 46 47 48 49 50
000
ASUS43 KMPX 260710
RWRMN
WEATHER ROUNDUP FOR MINNESOTA
NATIONAL WEATHER SERVICE TWIN CITIES/CHANHASSEN MN
200 AM CDT WED APR 26 2017


NOTE: "FAIR" INDICATES FEW OR NO CLOUDS BELOW 12,000 FEET WITH NO
SIGNIFICANT WEATHER AND/OR OBSTRUCTIONS TO VISIBILITY. N/A MEANS
CURRENT SKY AND/OR WEATHER CONDITIONS ARE NOT AVAILABLE.

MNZ060>063-068>070-260800-
   Twin Cities Metro

CITY           SKY/WX    TMP DP  RH WIND       PRES   REMARKS
TWIN CITIES    CLOUDY    46  42  86 N14       29.50F
ST PAUL        LGT RAIN  46  44  93 NE13G22   29.52F
CRYSTAL        CLOUDY    42  38  85 N15       29.51F
BLAINE         CLOUDY    43  43 100 NE17      29.53F
LAKEVILLE      DRIZZLE   48  48 100 N9        29.48S
EDEN PRAIRIE   CLOUDY    46  43  89 N12       29.48F
SOUTH ST PAUL  CLOUDY    46  46  98 N10       29.49F
LAKE ELMO      DRIZZLE   45  45 100 N9        29.51F
$$
MNZ001>005-007-008-013>017-022>024-027-028-260800-
   Northwest Minnesota

CITY           SKY/WX    TMP DP  RH WIND       PRES   REMARKS
BEMIDJI        LGT SNOW  28  26  92 NE18      29.77F WCI  15
HALLOCK        CLOUDY    32  25  74 NE14      29.91F WCI  22
ROSEAU         CLOUDY    30  25  80 NE18      29.90F WCI  18
WARROAD        CLOUDY    28  25  86 NE18G30   29.91S WCI  16
THIEF RVR FALL CLOUDY    29  25  85 NE22G28   29.84F WCI  15
CROOKSTON      CLOUDY    30  27  86 NE15G23   29.84F WCI  19
FOSSTON        CLOUDY    28  27  93 NE16G22   29.79F WCI  17
DETROIT LAKES  MIX PCPN  32  30  93 NE9       29.73F WCI  24
MOORHEAD       RAIN      30  28  93 N13       29.76F WCI  20
PARK RAPIDS    FRZ RAIN  31  26  82 NE14G21   29.71F WCI  21
MAHNOMEN       MIX PCPN  31  28  90 NE10      29.75F WCI  22
$$
MNZ006-009>011-018-025>026-260800-
   North Central Minnesota

CITY           SKY/WX    TMP DP  RH WIND       PRES   REMARKS
BAUDETTE       CLOUDY    27  20  75 NE20      29.88F WCI  13
FLAG ISLAND    CLOUDY    28  23  80 NE17G24   29.93F WCI  16
INTL FALLS     CLOUDY    25  20  81 NE15G25   29.86F WCI  13
WASKISH        CLOUDY    27  25  93 NE12      29.83F WCI  16
BIG FORK       FLURRIES  27  25  93 NE10G18   29.79F WCI  17
LONGVILLE      MIX PCPN  30  28  93 NE7       29.72F WCI  23
GRAND RAPIDS   FLURRIES  29  27  92 N10       29.74F WCI  20
CRANE LAKE     LGT SNOW  25  21  86 N8        29.87F VSB 1   WCI  16
ORR            MIX PCPN  25  21  86 N3        29.79F
COOK           FLURRIES  25  23  93 NE6G16    29.79F WCI  18
WALKER         MIX PCPN  29  26  90 N10       29.74F WCI  20
$$
MNZ012-019>021-037-260800-
   Northeast Minnesota

CITY           SKY/WX    TMP DP  RH WIND       PRES   REMARKS
DULUTH         LGT RAIN  35  32  88 E20G28    29.68F WCI  24
ELY            FLURRIES  25  23  93 NE8       29.78F WCI  16
HIBBING        FRZ RAIN  28  27  96 N13       29.72F WCI  17
EVELETH        MIX PCPN  30  27  87 NE12      29.73F WCI  20
DULUTH HARBOR  LGT RAIN  36  36 100 NE25      29.72S
TWO HARBORS    DRIZZLE   36  30  80 NE12      29.70F
SILVER BAY     DRIZZLE   34  30  86 NE10      29.72F WCI  26
GRAND MARAIS     N/A     32  28  85 NE13G20   29.76F WCI  22
G MARAIS ARPRT LGT SNOW  25  21  86 N5        29.74F WCI  19
$$
MNZ029>031-032-039>041-046>048-054>057-064-260800-
   West Central Minnesota

CITY           SKY/WX    TMP DP  RH WIND       PRES   REMARKS
FERGUS FALLS   LGT RAIN  34  34 100 NE10G16   29.70F WCI  26
WHEATON        MIX PCPN  34  32  93 NW14G22   29.72F WCI  24
MORRIS         DRIZZLE   36  34  93 N15       29.65S
ALEXANDRIA     MIX PCPN  33  31  92 NE18      29.64F WCI  22
ELBOW LAKE     LGT RAIN  34  32  94 NE14G23   29.68S WCI  24
WADENA         MIX PCPN  30  30 100 N8G17     29.67F WCI  23
GLENWOOD       MIX PCPN  34  34 100 N16G25    29.62F WCI  23
APPLETON       LGT RAIN  37  36  93 N17       29.64S
BENSON         DRIZZLE   39  34  81 NE12G20   29.64F
ORTONVILLE     LGT RAIN  34  32  93 N18       29.67F WCI  23
MADISON        LGT RAIN  39  39 100 N20       29.64F
WILLMAR        LGT RAIN  39  39 100 N18G25    29.59F
$$
MNZ033>034-036-042>043-049>051-058-059-260800-
   Central Minnesota

CITY           SKY/WX    TMP DP  RH WIND       PRES   REMARKS
ST CLOUD       RAIN      40  39  97 N9G20     29.58F FOG
SAUK CENTRE    LGT RAIN  34  32  93 N14G21    29.62F WCI  24
PAYNESVILLE    LGT RAIN  37  37 100 N14G23    29.60S
AITKIN         MIX PCPN  34  30  86 N13G21    29.66F WCI  25
PINE RIVER     MIX PCPN  30  30 100 N12G17    29.73F WCI  21
BRAINERD       MIX PCPN  32  30  92 NE17G25   29.66F WCI  21
STAPLES        MIX PCPN  30  30 100 CALM      29.67F
LONG PRAIRIE   FLURRIES  32  32 100 NW13G21   29.63F WCI  22
LITTLE FALLS   MIX PCPN  32  32 100 N7        29.63S WCI  26
LITCHFIELD     LGT RAIN  43  43 100 N14       29.56S
BUFFALO        DRIZZLE   43  41  91 N15G22    29.54F
MAPLE LAKE     DRIZZLE   44  43  96 NE16      29.55F
HUTCHINSON     RAIN      46  45  97 N10G18    29.53F
$$
MNZ037-044-045-052-053-260800-
   East Central Minnesota

CITY           SKY/WX    TMP DP  RH WIND       PRES   REMARKS
PRINCETON      DRIZZLE   43  39  87 N14       29.57F
MORA           HVY RAIN  36  34  93 NE10G22   29.62F
CAMBRIDGE      LGT RAIN  41  37  87 N13G20    29.55F
RUSH CITY      LGT RAIN  38  36  92 NE12G23   29.58F
MOOSE LAKE     LGT RAIN  34  32  93 E10G21    29.64S WCI  26
HINCKLEY       DRIZZLE   37  36  93 NE15G22   29.61F
CLOQUET        LGT RAIN  36  32  87 E15G26    29.67F
MCGREGOR       CLOUDY    32  32 100 N13G18    29.67F WCI  22
$$
MNZ071>073-080-081-089-090-097-098-260800-
   Southwest Minnesota

CITY           SKY/WX    TMP DP  RH WIND       PRES   REMARKS
MONTEVIDEO     DRIZZLE   37  37 100 N15       29.61F
GRANITE FALLS  DRIZZLE   40  38  93 N15G22    29.61F
CANBY          RAIN      37  36  96 NW15      29.65S
MARSHALL       LGT RAIN  37  36  93 N22       29.59F
REDWOOD FALLS  RAIN      42  40  92 N10       29.54F FOG
OLIVIA         LGT RAIN  41  37  87 N20       29.55F
PIPESTONE      DRIZZLE   36  32  87 N14G23    29.60S
WINDOM         DRIZZLE   39  39 100 NW23      29.52F
WORTHINGTON    CLOUDY    37  36  96 NW22      29.55F
JACKSON        LGT RAIN  39  39 100 NW20G25   29.51F
TRACY          CLOUDY    38  38 100 N18G24    29.57F
SLAYTON        CLOUDY    35  35  99 NW17G25   29.58S WCI  25
$$
MNZ065>067-074>077-082>085-091>093-260800-
   South Central Minnesota

CITY           SKY/WX    TMP DP  RH WIND       PRES   REMARKS
MANKATO        LGT RAIN  49  49 100 N15       29.46F VSB 3/4
NEW ULM        LGT RAIN  46  45  93 N10G22    29.50F
ST JAMES       DRIZZLE   45  45 100 NW14      29.50F
FAIRMONT       LGT RAIN  43  42  97 NW20      29.48F
GLENCOE        LGT RAIN  45  45 100 N13G20    29.50F
FARIBAULT      RAIN      54  54 100 NE6       29.46F
OWATONNA       LGT RAIN  54  52  94 E6        29.44F
WASECA         RAIN      52  50  93 NE7       29.45F
ALBERT LEA     LGT RAIN  52  52 100 E5        29.42F
$$
MNZ078>079-086>088-094>096-260800-
   Southeast Minnesota

CITY           SKY/WX    TMP DP  RH WIND       PRES   REMARKS
ROCHESTER      CLOUDY    53  52  96 NE9       29.45F
RED WING       RAIN      55  52  88 E5        29.46F
STANTON        LGT RAIN  55  53  94 NE8       29.45F
DODGE CENTER   LGT RAIN  52  52 100 NE14      29.44F
WINONA         CLOUDY    55  52  88 E5        29.46F
AUSTIN         LGT RAIN  54  52  94 NE8       29.41F
PRESTON        CLOUDY    53  50  90 NE9       29.44F
$$
ABBREVIATIONS USED IN REMARKS
   TC - TEMPERATURES IN CELSIUS
  WCI - WIND CHILL INDEX
   HX - HEAT INDEX
  VSB - VISIBILITY
$$




USA.gov is the U.S. government's official web portal to all federal, state and local government web resources and services.